Weather History for Springfield, VT

Change the Weather History Date:

Saturday, July 13, 2013

  Actual Average Record
Temperature  
Mean Temperature 68 °F 69 °F  
Max Temperature 78 °F 81 °F 95 °F (2012)
Min Temperature 58 °F 57 °F 46 °F (2002)
Cooling Degree Days 3 5  
Month to date cooling degree days 130 58  
Year to date cooling degree days 243 134  
Since 1 June cooling degree days 219 122  
Growing Degree Days 18 (Base 50)    
Moisture  
Dew Point 63 °F    
Average Humidity 79    
Maximum Humidity 100    
Minimum Humidity 57    
Precipitation  
Precipitation T in 0.15 in 2.60 in (1996)
Month to date precipitation 2.57 1.76  
Year to date precipitation 20.68 21.92  
Sea Level Pressure  
Sea Level Pressure 30.31 in    
Wind  
Wind Speed 1 mph (SSE)    
Max Wind Speed 9 mph    
Max Gust Speed 14 mph    
Visibility 10 miles    
Events Rain    
T = Trace of Precipitation, MM = Missing Value Source: NWS Daily Summary

Daily Weather History Graph

Daily Weather History Graph

Search for Another Location

Airport:

Trip Planner

Search our weather history database for the weather conditions in past years. The results will help you decide how hot, cold, wet, or windy it might be!

Date:

Astronomy

Jul. 13, 2013 Rise Set
Actual Time 5:21 AM EDT 8:29 PM EDT
Civil Twilight 4:47 AM EDT 9:03 PM EDT
Nautical Twilight 4:02 AM EDT 9:48 PM EDT
Astronomical Twilight 3:09 AM EDT 10:41 PM EDT
Moon 10:45 AM EDT (7/13) 10:57 PM EDT (7/13)
Length of Visible Light 16h 16m
Length of Day
15h 07m
Waxing Crescent, 25% of the Moon is Illuminated
Jul 13
Waxing Crescent
Jul 15
First Quarter
Jul 22
Full
Jul 29
Last Quarter
Aug 6
New

Hourly Weather History & Observations

Time (EDT) Temp. Dew Point Humidity Pressure Visibility Wind Dir Wind Speed Gust Speed Precip Events Conditions
12:54 AM 63.0 °F 61.0 °F 93% 30.25 in 10.0 mi Calm Calm - N/A   Clear
1:54 AM 61.0 °F 59.0 °F 93% 30.25 in 10.0 mi Calm Calm - N/A   Clear
2:54 AM 59.0 °F 57.9 °F 96% 30.26 in 10.0 mi Calm Calm - N/A   Scattered Clouds
3:54 AM 59.0 °F 59.0 °F 100% 30.27 in 10.0 mi Calm Calm - N/A   Clear
4:54 AM 60.1 °F 59.0 °F 96% 30.27 in 10.0 mi Calm Calm - N/A   Overcast
5:54 AM 60.1 °F 59.0 °F 96% 30.28 in 10.0 mi Calm Calm - N/A   Overcast
6:54 AM 62.1 °F 60.1 °F 93% 30.29 in 10.0 mi Calm Calm - N/A   Mostly Cloudy
7:54 AM 64.9 °F 61.0 °F 87% 30.31 in 10.0 mi Calm Calm - N/A   Overcast
8:54 AM 66.9 °F 61.0 °F 81% 30.32 in 10.0 mi Calm Calm - N/A   Overcast
9:54 AM 69.1 °F 61.0 °F 75% 30.32 in 10.0 mi Calm Calm - N/A   Overcast
10:54 AM 71.1 °F 61.0 °F 70% 30.33 in 10.0 mi Calm Calm - N/A   Overcast
11:54 AM 72.0 °F 57.9 °F 61% 30.33 in 10.0 mi ENE 3.5 mph - N/A   Overcast
12:54 PM 73.0 °F 57.0 °F 57% 30.32 in 10.0 mi Calm Calm - N/A   Overcast
1:21 PM 73.4 °F 57.2 °F 57% 30.33 in 10.0 mi Calm Calm - N/A   Overcast
1:54 PM 73.0 °F 59.0 °F 61% 30.32 in 10.0 mi Calm Calm - N/A   Overcast
2:19 PM 73.4 °F 60.8 °F 65% 30.32 in 10.0 mi Calm Calm - N/A   Overcast
2:52 PM 75.2 °F 62.6 °F 65% 30.32 in 10.0 mi SE 3.5 mph - N/A   Overcast
2:54 PM 75.0 °F 62.1 °F 64% 30.32 in 10.0 mi ESE 4.6 mph - N/A   Overcast
3:02 PM 75.2 °F 62.6 °F 65% 30.32 in 10.0 mi Variable 4.6 mph - N/A   Overcast
3:14 PM 75.2 °F 62.6 °F 65% 30.32 in 10.0 mi Calm Calm - N/A   Overcast
3:37 PM 78.8 °F 64.4 °F 61% 30.31 in 10.0 mi South 9.2 mph - N/A   Overcast
3:54 PM 77.0 °F 64.0 °F 64% 30.30 in 10.0 mi Variable 3.5 mph - N/A   Overcast
4:05 PM 77.0 °F 64.4 °F 65% 30.31 in 10.0 mi Variable 4.6 mph - N/A   Overcast
4:54 PM 73.9 °F 66.0 °F 76% 30.30 in 10.0 mi Variable 4.6 mph - 0.00 in   Overcast
5:01 PM 73.4 °F 66.2 °F 78% 30.31 in 2.0 mi SSE 4.6 mph - 0.00 in Rain Light Rain
5:11 PM 73.4 °F 66.2 °F 78% 30.31 in 10.0 mi South 3.5 mph - 0.00 in   Overcast
5:20 PM 73.4 °F 66.2 °F 78% 30.30 in 7.0 mi South 3.5 mph - 0.00 in Rain Light Rain
5:30 PM 71.6 °F 66.2 °F 83% 30.30 in 9.0 mi SSW 3.5 mph - 0.00 in Rain Light Rain
5:42 PM 71.6 °F 66.2 °F 83% 30.30 in 10.0 mi Calm Calm - 0.00 in   Overcast
5:54 PM 72.0 °F 66.9 °F 84% 30.30 in 10.0 mi Calm Calm - 0.00 in   Overcast
6:54 PM 72.0 °F 68.0 °F 87% 30.31 in 10.0 mi Calm Calm - N/A   Overcast
7:54 PM 72.0 °F 66.9 °F 84% 30.31 in 10.0 mi Calm Calm - 0.00 in   Overcast
8:54 PM 71.1 °F 68.0 °F 90% 30.31 in 10.0 mi Calm Calm - N/A   Overcast
9:54 PM 71.1 °F 68.0 °F 90% 30.32 in 10.0 mi Calm Calm - N/A   Overcast
10:28 PM 69.8 °F 66.2 °F 88% 30.32 in 10.0 mi Calm Calm - N/A   Scattered Clouds
10:54 PM 68.0 °F 66.9 °F 96% 30.32 in 10.0 mi Calm Calm - N/A   Clear
11:54 PM 66.9 °F 66.0 °F 97% 30.32 in 10.0 mi Calm Calm - N/A   Clear